sat.trackr.live / text

‹ back to catalog

2025-284B

NORAD 66914 · 2025-284B

PAYLOAD ACTIVE UNKNOWN

§ Identity

Operator
Country
PRC
Launch date
2025-12-05
Launch site
JSC
Launch vehicle
Mass (kg)
RCS (m²)

External: N2YO · Heavens-Above · Gunter

§ Orbital elements

Epoch: 2026-09-20T11:50:09.334176Z

Period
103.05 min
Inclination
80.4002°
Eccentricity
0.0011701
Mean motion
13.97342344 rev/d
Perigee alt
894.5 km
Apogee alt
911.5 km
Semi-major
7,281.1 km
B*
6.5029e-5
RAAN
189.6841°
Arg perigee
345.4874°
Mean anomaly
14.5950°
Rev number
4,079

§ Raw data

2025-284B1 66914U 25284B   26263.49316359  .00000101  00000+0  65029-4 0  99932 66914  80.4002 189.6841 0011701 345.4874  14.5950 13.97342344 40798

JSON: /api/v1/satellites/66914 · /tle

For live sub-satellite position, see the globe view (requires WebGL).

§ Visibility from observer

Set your observer location to see the next 7 days of passes ≥ 10°. The values pass through the URL so the page stays shareable.

No JS? Fill the form by hand. The geolocation button needs JavaScript.